Simultaneous Nadir Overpasses (SNOs) Predictions

Prediction of SNOs between NOAA-20 and NOAA-19 Satellite Orbit:

Table of predicted SNOs for the next 14.0 days since TLE Epoch: 5/24/2019
Index Date (NOAA-20) Time (NOAA-20) Lat,Lon (NOAA-20) SZA (NOAA-20 ) Date (NOAA-19) Time (NOAA-19) Lat,Lon (NOAA-19) SZA (NOAA-19 ) Distance(km) Time Diff (sec)
1 05/31/2019 02:41:32 -80.08, -79.91 119.46 05/31/2019 02:40:26 -80.08, -79.83 119.43 1.56 66
2 05/31/2019 03:32:17 80.08, 87.40 60.54 05/31/2019 03:31:24 80.08, 87.38 60.57 0.68 53
3 05/31/2019 04:23:02 -80.09,-105.33 119.46 05/31/2019 04:22:27 -80.08,-105.38 119.44 1.36 35
4 05/31/2019 05:13:47 80.09, 61.98 60.54 05/31/2019 05:13:25 80.07, 61.83 60.56 3.22 22
5 05/31/2019 06:04:32 -80.09,-130.74 119.46 05/31/2019 06:04:27 -80.10,-130.60 119.47 2.69 5
6 05/31/2019 06:55:17 80.09, 36.57 60.54 05/31/2019 06:55:25 80.09, 36.60 60.53 0.66 8
7 05/31/2019 07:46:02 -80.09,-156.15 119.46 05/31/2019 07:46:28 -80.09,-156.15 119.48 0.08 26
8 05/31/2019 08:36:47 80.09, 11.15 60.54 05/31/2019 08:37:26 80.09, 11.05 60.53 2.09 39
9 05/31/2019 09:27:32 -80.10, 178.44 119.47 05/31/2019 09:28:29 -80.09, 178.31 119.48 2.55 57




NCC Satellite Simultaneous Nadir Overpasses (SNOs) Prediction Service
